| time (UTC) | temp C | wind direction | speed KPH | gust KPH | rain 1hr cm | rain 24hr cm | rain mn cm | humidity % | barometer mb |
| 20260502234507 | 17 | 360 | 9.7 | 16.1 | 0.00 | 0.00 | 0.00 | 33 | 1014.1 |
| 20260502233004 | 17 | 360 | 17.7 | 24.1 | 0.00 | 0.00 | 0.00 | 36 | 1014.3 |
| 20260502231502 | 17 | 48 | 4.8 | 20.9 | 0.00 | 0.00 | 0.00 | 35 | 1014.6 |
| 20260502230101 | 17 | 360 | 19.3 | 25.7 | 0.00 | 0.00 | 0.00 | 36 | 1014.8 |
| 20260502224557 | 17 | 82 | 12.9 | 25.7 | 0.00 | 0.00 | 0.00 | 37 | 1014.7 |
| 20260502223057 | 17 | 89 | 9.7 | 20.9 | 0.00 | 0.00 | 0.00 | 36 | 1014.9 |
| 20260502221612 | 17 | 360 | 17.7 | 22.5 | 0.00 | 0.00 | 0.00 | 37 | 1015.3 |
| 20260502214552 | 18 | 360 | 6.4 | 16.1 | 0.00 | 0.00 | 0.00 | 33 | 1015.7 |
| 20260502213051 | 18 | 67 | 3.2 | 17.7 | 0.00 | 0.00 | 0.00 | 34 | 1016.0 |
| 20260502211550 | 18 | 202 | 4.8 | 14.5 | 0.00 | 0.00 | 0.00 | 35 | 1016.2 |
| 20260502210104 | 18 | 360 | 6.4 | 16.1 | 0.00 | 0.00 | 0.00 | 36 | 1016.3 |
| 20260502204548 | 17 | 360 | 8.0 | 22.5 | 0.00 | 0.00 | 0.00 | 35 | 1016.4 |
| 20260502203046 | 17 | 360 | 11.3 | 20.9 | 0.00 | 0.00 | 0.00 | 35 | 1016.4 |
| 20260502201549 | 18 | 360 | 3.2 | 20.9 | 0.00 | 0.00 | 0.00 | 35 | 1016.5 |
| 20260502200057 | 17 | 360 | 3.2 | 19.3 | 0.00 | 0.00 | 0.00 | 36 | 1016.6 |
| 20260502194541 | 17 | 360 | 6.4 | 14.5 | 0.00 | 0.00 | 0.00 | 36 | 1016.7 |
| 20260502193041 | 17 | 360 | 9.7 | 17.7 | 0.00 | 0.00 | 0.00 | 38 | 1016.8 |
| 20260502191536 | 16 | 324 | 3.2 | 19.3 | 0.00 | 0.00 | 0.00 | 40 | 1016.9 |
| 20260502190042 | 16 | 360 | 4.8 | 16.1 | 0.00 | 0.00 | 0.00 | 41 | 1017.1 |
| 20260502184559 | 15 | 360 | 3.2 | 17.7 | 0.00 | 0.00 | 0.00 | 44 | 1017.1 |
| 20260502183056 | 14 | 360 | 3.2 | 17.7 | 0.00 | 0.00 | 0.00 | 43 | 1017.4 |
| 20260502181552 | 14 | 313 | 9.7 | 17.7 | 0.00 | 0.00 | 0.00 | 42 | 1017.5 |
| 20260502163046 | 11 | 360 | 14.5 | 24.1 | 0.00 | 0.00 | 0.00 | 55 | 1018.0 |
| 20260502161534 | 11 | 360 | 12.9 | 25.7 | 0.00 | 0.00 | 0.00 | 55 | 1018.0 |
| 20260502151554 | 10 | 360 | 16.1 | 27.4 | 0.00 | 0.00 | 0.00 | 59 | 1018.0 |
| 20260502123010 | 6 | 360 | 1.6 | 9.7 | 0.00 | 0.00 | 0.00 | 62 | 1017.6 |
| 20260502121507 | 6 | 360 | 3.2 | 6.4 | 0.00 | 0.00 | 0.00 | 59 | 1017.1 |
| 20260502114600 | 6 | 360 | 8.0 | 17.7 | 0.00 | 0.00 | 0.00 | 57 | 1016.4 |
| 20260502113056 | 7 | 360 | 8.0 | 19.3 | 0.00 | 0.00 | 0.00 | 52 | 1016.1 |
| 20260502111552 | 8 | 48 | 8.0 | 20.9 | 0.00 | 0.00 | 0.00 | 49 | 1016.1 |
| 20260502110056 | 10 | 46 | 8.0 | 17.7 | 0.00 | 0.00 | 0.00 | 45 | 1016.0 |
| 20260502104545 | 10 | 360 | 8.0 | 11.3 | 0.00 | 0.00 | 0.00 | 41 | 1015.3 |
| 20260502103045 | 10 | 151 | 4.8 | 9.7 | 0.00 | 0.00 | 0.00 | 42 | 1015.3 |
| 20260502101556 | 10 | 151 | 6.4 | 11.3 | 0.00 | 0.00 | 0.00 | 42 | 1015.2 |
| 20260502071512 | 12 | 360 | 4.8 | 6.4 | 0.00 | 0.00 | 0.00 | 37 | 1015.2 |
| 20260502070019 | 12 | 360 | 4.8 | 9.7 | 0.00 | 0.00 | 0.00 | 36 | 1015.1 |
| 20260502064506 | 12 | 360 | 4.8 | 8.0 | 0.00 | 0.00 | 0.00 | 36 | 1015.2 |
| 20260502063008 | 12 | 360 | 6.4 | 8.0 | 0.00 | 0.00 | 0.00 | 36 | 1015.1 |
| 20260502061504 | 13 | 360 | 4.8 | 8.0 | 0.00 | 0.00 | 0.00 | 35 | 1014.9 |
| 20260502060002 | 13 | 360 | 3.2 | 8.0 | 0.00 | 0.00 | 0.00 | 33 | 1015.0 |
| 20260502054501 | 13 | 360 | 1.6 | 4.8 | 0.00 | 0.00 | 0.00 | 35 | 1014.9 |
| 20260502053100 | 13 | 155 | 1.6 | 4.8 | 0.00 | 0.00 | 0.00 | 34 | 1014.8 |
| 20260502051601 | 13 | 360 | 1.6 | 4.8 | 0.00 | 0.00 | 0.00 | 34 | 1015.0 |
| 20260502050037 | 13 | 155 | 8.0 | 9.7 | 0.00 | 0.00 | 0.00 | 32 | 1014.9 |
| 20260502044530 | 13 | 155 | 3.2 | 8.0 | 0.00 | 0.00 | 0.00 | 32 | 1015.1 |
| 20260502043026 | 14 | 155 | 6.4 | 12.9 | 0.00 | 0.00 | 0.00 | 34 | 1015.0 |
| 20260502041528 | 15 | 360 | 6.4 | 12.9 | 0.00 | 0.00 | 0.00 | 32 | 1014.8 |
| 20260502040026 | 15 | 360 | 4.8 | 8.0 | 0.00 | 0.00 | 0.00 | 32 | 1014.9 |
| 20260502034525 | 16 | 360 | 3.2 | 6.4 | 0.00 | 0.00 | 0.00 | 31 | 1014.8 |
| 20260502033022 | 16 | 360 | 4.8 | 8.0 | 0.00 | 0.00 | 0.00 | 30 | 1014.7 |
| 20260502031522 | 17 | 360 | 4.8 | 8.0 | 0.00 | 0.00 | 0.00 | 29 | 1014.6 |
| 20260502030021 | 17 | 360 | 3.2 | 9.7 | 0.00 | 0.00 | 0.00 | 27 | 1014.4 |
| 20260502024520 | 18 | 151 | 1.6 | 4.8 | 0.00 | 0.00 | 0.00 | 26 | 1014.3 |
| 20260502023017 | 18 | 360 | 0.0 | 3.2 | 0.00 | 0.00 | 0.00 | 25 | 1014.2 |
| 20260502021516 | 19 | 360 | 1.6 | 8.0 | 0.00 | 0.00 | 0.00 | 26 | 1014.2 |
| 20260502020015 | 20 | 150 | 1.6 | 8.0 | 0.00 | 0.00 | 0.00 | 27 | 1014.1 |
| 20260502014516 | 20 | 360 | 0.0 | 3.2 | 0.00 | 0.00 | 0.00 | 25 | 1014.0 |
| 20260502013011 | 21 | 360 | 0.0 | 4.8 | 0.00 | 0.00 | 0.00 | 24 | 1014.1 |
| 20260502011508 | 21 | 360 | 0.0 | 3.2 | 0.00 | 0.00 | 0.00 | 24 | 1014.2 |
| 20260502010011 | 21 | 360 | 0.0 | 6.4 | 0.00 | 0.00 | 0.00 | 25 | 1014.3 |
| 20260502004506 | 21 | 360 | 3.2 | 8.0 | 0.00 | 0.00 | 0.00 | 26 | 1014.5 |
| 20260502003004 | 21 | 149 | 3.2 | 11.3 | 0.00 | 0.00 | 0.00 | 23 | 1014.7 |
| 20260502001534 | 21 | 360 | 0.0 | 9.7 | 0.00 | 0.00 | 0.00 | 24 | 1014.7 |
| 20260502000056 | 20 | 148 | 6.4 | 14.5 | 0.00 | 0.00 | 0.00 | 24 | 1014.7 |